Regional Weather Roundup
Issued by NWS

Home | Current Version | Previous Version | Graphics & Text | Print | Product List | Glossary On
Versions: 1 2 3 4 5 6 7 8 9 10 11 12 13 14 15 16 17 18 19 20 21 22 23 24 25 26 27 28 29 30 31 32 33 34 35 36 37 38 39 40 41 42 43 44 45 46 47 48 49 50
000
ASUS43 KDMX 250107
RWRIA

WEATHER ROUNDUP FOR IOWA
NATIONAL WEATHER SERVICE DES MOINES IA
800 PM CDT FRI APR 24 2015

NOTE: "FAIR" INDICATES FEW OR NO CLOUDS BELOW 12,000 FEET WITH NO
SIGNIFICANT WEATHER AND/OR OBSTRUCTIONS TO VISIBILITY.

* - THESE STATIONS ARE NOT NWS STATIONS...THUS NOT UNDER NWS
QUALITY CONTROL.  THEY ALSO DO NOT REPORT WEATHER SUCH
AS PRECIPITATION OR FOG.

IAZ001>003-012>014-020>022-031>034-043>046-250200-
   NORTHWEST IOWA

CITY           SKY/WX    TMP DP  RH WIND       PRES   REMARKS
CARROLL *      CLOUDY    55  50  82 SE20G26   29.63F
CHEROKEE *     PTCLDY    57  50  77 SE16G26   29.60S
DENISON *      CLOUDY    61  54  77 SE10G18   29.58F
LE MARS *      PTCLDY    63  52  67 SE16G25   29.55S
ORANGE CITY *  CLEAR     57  50  77 SE14G23   29.58R
SHELDON *      CLEAR     54  50  87 E21G29    29.59R
SIOUX CITY     PTCLDY    68  52  56 S15       29.54S
SPENCER        CLOUDY    52  47  83 SE24      29.64S
STORM LAKE *   CLEAR     54  50  87 SE18G26   29.63S
$$

IAZ055>058-069>071-079>083-090>094-250200-
   SOUTHWEST IOWA

CITY           SKY/WX    TMP DP  RH WIND       PRES   REMARKS
ATLANTIC *     CLOUDY    57  54  88 SE8       29.62S
AUDUBON *      CLEAR     57  52  82 SE9       29.63F
CLARINDA *     CLOUDY    57  54  88 SE6       29.62F
COUNCIL BLFS * CLOUDY    57  55  94 SE13      29.58F
CRESTON *      CLOUDY    55  55 100 SE10      29.64F
HARLAN  *      CLOUDY    59  57  94 SE10      29.63F
LAMONI         CLOUDY    56  54  93 E5        29.64F FOG
RED OAK *      CLOUDY    57  54  88 SE10      29.60F
SHENANDOAH *   CLOUDY    59  54  82 E9        29.60F
$$

IAZ047>049-059>061-072>074-084-250200-
   CENTRAL IOWA

CITY           SKY/WX    TMP DP  RH WIND       PRES   REMARKS
AMES           CLOUDY    49  43  80 E13       29.69F
ANKENY *       CLOUDY    50  46  87 E15       29.68F
CHARITON *     CLOUDY    55  55 100 SE9       29.67F FOG
DES MOINES     CLOUDY    53  47  79 E12       29.67F
GRINNELL*      CLOUDY    46  43  87 E14       29.72S
KNOXVILLE *    CLOUDY    52  48  87 E8        29.67F
MARSHALLTOWN   CLOUDY    46  42  86 E17       29.71F
PELLA *        LGT RAIN  48  48 100 E6        29.70F
PERRY *        CLOUDY    52  48  87 E14       29.66F
$$

IAZ004>006-015-016-023>025-035-036-250200-
   NORTH CENTRAL IOWA

CITY           SKY/WX    TMP DP  RH WIND       PRES   REMARKS
ALGONA *       CLOUDY    48  46  93 SE17      29.70R
CLARION *      CLOUDY    46  46 100 SE18      29.70S
ESTHERVILLE    CLOUDY    47  44  90 SE22      29.67S
FORT DODGE *   CLOUDY    48  43  81 E17       29.69S
MASON CITY     CLOUDY    45  42  89 E12       29.75F
FOREST CITY *  CLOUDY    45  41  87 E13G18    29.73F
IOWA FALLS *   CLOUDY    46  43  87 SE16      29.72S
$$

IAZ007>011-017>019-026>030-037>042-050>054-066-250200-
   NORTHEAST IOWA

CITY           SKY/WX    TMP DP  RH WIND       PRES   REMARKS
CEDAR RAPIDS   RAIN      45  32  60 E15       29.75F
CHARLES CITY * CLOUDY    45  43  93 SE16G24   29.77S
CLINTON *      CLOUDY    45  41  87 E18       29.84S
DECORAH *      CLOUDY    43  39  87 SE12G17   29.80R
DUBUQUE        CLOUDY    43  40  89 E16       29.83F
MONTICELLO *   CLOUDY    45  45 100 E16       29.80F
OELWEIN *      CLOUDY    45  41  87 SE23      29.76F
WATERLOO       CLOUDY    46  41  82 SE20      29.74F
$$

IAZ064-065-067-068-078-250200-
   EAST CENTRAL IOWA

CITY           SKY/WX    TMP DP  RH WIND       PRES   REMARKS
DAVENPORT      CLOUDY    47  41  80 E15       29.81F
IOWA CITY      LGT RAIN  47  43  86 NE13      29.77F FOG
MT. PLEASANT * CLOUDY    59  37  44 SE9       29.73S
MUSCATINE *    CLOUDY    52  43  71 E12       29.77S
QUAD CITIES    CLOUDY    49  42  77 NE13      29.80F
$$

IAZ062-063-075>077-085>089-095>099-250200-
   SOUTHEAST IOWA

CITY           SKY/WX    TMP DP  RH WIND       PRES   REMARKS
BURLINGTON     CLOUDY    60  37  42 SE8       29.74R
FAIRFIELD *    CLOUDY    54  46  76 E12       29.71F
FORT MADISON * CLOUDY    61  37  41 SE13      29.74R
KEOKUK *       CLOUDY    63  39  42 SE10G16   29.71S
OSKALOOSA *    CLOUDY    50  46  87 E7        29.70F
CENTERVILLE *  CLOUDY    57  55  94 SE9       29.68F
OTTUMWA        CLOUDY    52  49  89 NE13      29.68F
WASHINGTON *   CLOUDY    52  52 100 E15       29.73F
$$

ABBREVIATIONS USED IN REMARKS
   TC - TEMPERATURES IN CELSIUS
  WCI - WIND CHILL INDEX
   HX - HEAT INDEX
  VSB - VISIBILITY
$$



USA.gov is the U.S. government's official web portal to all federal, state and local government web resources and services.